sat.trackr.live / text

‹ back to catalog

STARLINK-11454 [DTC]

NORAD 62059 · 2024-217C

PAYLOAD ACTIVE UNKNOWN

§ Identity

Operator
Country
US
Launch date
2024-11-24
Launch site
AFWTR
Launch vehicle
Mass (kg)
RCS (m²)

Purposes: comms

External: N2YO · Heavens-Above · Gunter

§ Orbital elements

Epoch: 2026-09-21T11:38:32.263296Z

Period
91.74 min
Inclination
53.1566°
Eccentricity
0.0001179
Mean motion
15.69725792 rev/d
Perigee alt
358.9 km
Apogee alt
360.5 km
Semi-major
6,737.8 km
B*
1.2024e-3
RAAN
186.1882°
Arg perigee
93.6888°
Mean anomaly
266.4265°
Rev number
10,592

§ Raw data

STARLINK-11454 [DTC]1 62059U 24217C   26264.48509564  .00147800  00000+0  12024-2 0  99992 62059  53.1566 186.1882 0001179  93.6888 266.4265 15.69725792105925

JSON: /api/v1/satellites/62059 · /tle

For live sub-satellite position, see the globe view (requires WebGL).

§ Visibility from observer

Set your observer location to see the next 7 days of passes ≥ 10°. The values pass through the URL so the page stays shareable.

No JS? Fill the form by hand. The geolocation button needs JavaScript.